Regional Weather Roundup
Issued by NWS

Home | Current Version | Previous Version | Text Only | Print | Product List | Glossary Off
Versions: 1 2 3 4 5 6 7 8 9 10 11 12 13 14 15 16 17 18 19 20 21 22 23 24 25 26 27 28 29 30 31 32 33 34 35 36 37 38 39 40 41 42 43 44 45 46 47 48 49 50

343
ASUS43 KFSD 190002
RWRSD

WEATHER ROUNDUP FOR SOUTH DAKOTA
NATIONAL WEATHER SERVICE SIOUX FALLS SD
600 PM CST SAT NOV 18 2017

NOTE: "FAIR" INDICATES FEW OR NO CLOUDS BELOW 12,000 FEET WITH NO
SIGNIFICANT WEATHER AND/OR OBSTRUCTIONS TO VISIBILITY.


SDZ001>005-009-010-012>017-190100-
NORTHWEST AND NORTH CENTRAL SOUTH DAKOTA

CITY           SKY/WX    TMP DP  RH WIND       PRES   REMARKS
BUFFALO          N/A     36  21  54 W12       30.05S
FAITH            N/A     33  24  69 NW6       30.11R WCI  28
MOBRIDGE       CLEAR     27  16  63 W3        30.10S
$$

SDZ012>016-024>037-041>051-057-063-072>074-190100-
SOUTHWEST AND SOUTH CENTRAL SOUTH DAKOTA

CITY           SKY/WX    TMP DP  RH WIND       PRES   REMARKS
RAPID CTY ARPT CLEAR     33  19  56 N9        30.13S WCI  25
PIERRE         CLEAR     28  21  75 N5        30.13S WCI  23
CUSTER         CLEAR     30  11  45 W7        30.10S WCI  23
ELLSWORTH AFB  PTCLDY    39  19  45 N8        30.13R
PHILIP         CLOUDY    38  27  64 N5        30.15R
PINE RIDGE     CLEAR     37  15  40 W5        30.16R
SPEARFISH      FAIR      37  16  41 W12       30.13R
WINNER         FAIR      34  23  64 N5        30.15R WCI  30
$$

SDZ004>011-016>023-039-040-190100-
NORTHEAST SOUTH DAKOTA

CITY           SKY/WX    TMP DP  RH WIND       PRES   REMARKS
ABERDEEN       CLEAR     24  12  60 NW9       30.12S WCI  14
WATERTOWN      CLEAR     24  13  62 NW13      30.06R WCI  12
BROOKINGS      CLEAR     27  16  63 NW15      30.07R WCI  15
SISSETON         N/A     19  10  68 NW8       30.09R WCI   9
$$

SDZ017-020-022-023-036>040-048>070-190100-
SOUTHEAST SOUTH DAKOTA

CITY           SKY/WX    TMP DP  RH WIND       PRES   REMARKS
SIOUX FALLS    CLEAR     31  16  54 NW15      30.10R WCI  20
HURON          CLEAR     25  15  66 NW7       30.14R WCI  17
CHAMBERLAIN    CLEAR     33  23  64 NW9G17    30.15R WCI  26
MITCHELL       PTCLDY    31  17  56 NW10      30.16R WCI  22
YANKTON        PTCLDY    31  21  66 W10       30.15R WCI  22
$$

ABBREVIATIONS USED IN REMARKS
   TC - TEMPERATURE IN CELSIUS
  WCI - WIND CHILL INDEX
   HX - HEAT INDEX
  VSB - VISIBILITY





USA.gov is the U.S. government's official web portal to all federal, state and local government web resources and services.